FW1764 Weather Reports


Display with metric or nautical units.
time (UTC)temp
F
wind
direction
speed
MPH
gust
MPH
rain 1hr
in
rain 24hr
in
rain mn
in
humidity
%
barometer
mb
20260510230047 68 314 0.0 0.0 0.00 0.00 0.00 51 1020.4
20260510224549 69 314 0.0 1.0 0.00 0.00 0.00 50 1020.1
20260510223046 69 11 0.0 1.0 0.00 0.00 0.00 48 1020.4
20260510221545 69 32 0.0 1.0 0.00 0.00 0.00 48 1020.2
20260510220043 70 23 0.0 1.0 0.00 0.00 0.00 47 1020.3
20260510214544 71 356 0.0 1.0 0.00 0.00 0.00 46 1020.2
20260510213046 71 28 0.0 1.0 0.00 0.00 0.00 48 1020.2
20260510211516 71 201 0.0 2.0 0.00 0.00 0.00 45 1020.3
20260510210014 70 188 0.0 4.0 0.00 0.00 0.00 45 1020.3
20260510204550 70 37 0.0 1.0 0.00 0.00 0.00 40 1020.3
20260510203041 70 18 1.0 3.0 0.00 0.00 0.00 39 1020.3
20260510201538 70 229 0.0 1.0 0.00 0.00 0.00 37 1020.2
20260510200036 70 229 0.0 2.0 0.00 0.00 0.00 38 1020.1
20260510194549 70 65 0.0 4.0 0.00 0.00 0.00 40 1020.2
20260510193034 71 236 0.0 1.0 0.00 0.00 0.00 39 1020.0
20260510191531 71 307 0.0 3.0 0.00 0.00 0.00 42 1020.2
20260510190045 70 65 0.0 4.0 0.00 0.00 0.00 39 1020.1
20260510184531 70 42 0.0 2.0 0.00 0.00 0.00 42 1020.3
20260510183030 71 203 0.0 2.0 0.00 0.00 0.00 41 1020.0
20260510181527 70 355 0.0 3.0 0.00 0.00 0.00 41 1019.7
20260510180026 71 257 0.0 2.0 0.00 0.00 0.00 40 1019.7
20260510174526 71 225 0.0 3.0 0.00 0.00 0.00 41 1020.0
20260510173025 71 327 0.0 3.0 0.00 0.00 0.00 42 1020.0
20260510171554 71 70 1.0 4.0 0.00 0.00 0.00 40 1019.9
20260510170057 72 349 0.0 6.0 0.00 0.00 0.00 44 1019.9
20260510164556 74 65 0.0 3.0 0.00 0.00 0.00 43 1019.9
20260510163049 74 73 0.0 2.0 0.00 0.00 0.00 46 1020.2
20260510161543 72 129 0.0 2.0 0.00 0.00 0.00 49 1020.2
20260510160040 71 64 0.0 3.0 0.00 0.00 0.00 48 1020.3
20260510154535 69 66 0.0 3.0 0.00 0.00 0.00 53 1020.2
20260510153032 68 295 0.0 2.0 0.00 0.00 0.00 58 1020.0
20260510151527 66 73 0.0 2.0 0.00 0.00 0.00 56 1019.9
20260510150024 65 40 0.0 3.0 0.00 0.00 0.00 60 1019.9
20260510144520 63 145 0.0 2.0 0.00 0.00 0.00 65 1019.4
20260510143014 62 140 0.0 2.0 0.00 0.00 0.00 67 1018.9
20260510141513 62 356 0.0 4.0 0.00 0.00 0.00 71 1018.9
20260510140012 60 267 0.0 2.0 0.00 0.00 0.00 74 1018.8
20260510134509 60 199 0.0 0.0 0.00 0.00 0.00 80 1019.0
20260510133007 59 36 0.0 0.0 0.00 0.00 0.00 81 1018.8
20260510131505 58 36 0.0 0.0 0.00 0.00 0.00 84 1018.6
20260510130005 58 36 0.0 0.0 0.00 0.00 0.00 85 1018.5
20260510124504 57 37 0.0 0.0 0.00 0.00 0.00 86 1018.0
20260510123031 57 92 0.0 0.0 0.00 0.00 0.00 88 1017.8
20260510121530 58 207 0.0 0.0 0.00 0.00 0.00 89 1017.7
20260510120026 58 148 0.0 0.0 0.00 0.00 0.00 89 1017.7
20260510114535 58 173 0.0 0.0 0.00 0.00 0.00 89 1017.5
20260510113032 58 173 0.0 0.0 0.00 0.00 0.00 89 1016.9
20260510111522 58 173 0.0 0.0 0.00 0.00 0.00 89 1016.7
20260510110020 58 77 0.0 0.0 0.00 0.00 0.00 89 1016.4
20260510104513 58 77 0.0 0.0 0.00 0.00 0.00 89 1016.2
20260510103011 58 77 0.0 0.0 0.00 0.00 0.00 88 1016.2
20260510101511 58 77 0.0 0.0 0.00 0.00 0.00 88 1015.7
20260510100106 59 77 0.0 0.0 0.00 0.00 0.00 88 1015.5
20260510094608 59 75 0.0 0.0 0.00 0.00 0.00 88 1015.1
20260510093101 60 75 0.0 0.0 0.00 0.00 0.00 88 1014.8
20260510091558 60 75 0.0 0.0 0.00 0.00 0.00 88 1014.8
20260510090054 60 209 0.0 0.0 0.00 0.00 0.00 88 1015.0
20260510084551 60 206 0.0 0.0 0.00 0.00 0.00 87 1014.7
20260510083050 60 206 0.0 0.0 0.00 0.00 0.00 87 1014.5
20260510081549 60 206 0.0 0.0 0.00 0.00 0.00 87 1014.4
20260510080049 60 206 0.0 0.0 0.00 0.00 0.00 87 1014.1
20260510074546 61 206 0.0 0.0 0.00 0.00 0.00 87 1014.0
20260510073047 61 207 0.0 0.0 0.00 0.00 0.00 87 1013.6
20260510071543 61 207 0.0 0.0 0.00 0.00 0.00 87 1013.6
20260510070052 61 198 0.0 0.0 0.00 0.00 0.00 86 1013.0
20260510064540 61 184 0.0 0.0 0.00 0.00 0.00 86 1013.7
20260510063040 62 184 0.0 0.0 0.00 0.00 0.00 85 1013.6
20260510061534 62 212 0.0 0.0 0.00 0.00 0.00 84 1013.5
20260510060004 62 195 0.0 0.0 0.00 0.00 0.00 84 1013.6
20260510054502 63 213 0.0 0.0 0.00 0.11 0.00 83 1014.2
20260510053028 63 96 0.0 0.0 0.00 0.11 0.00 82 1013.4
20260510051526 63 94 0.0 0.0 0.00 0.11 0.00 82 1013.6
20260510050022 63 109 0.0 0.0 0.00 0.11 0.00 82 1013.6
20260510044522 63 102 0.0 0.0 0.00 0.47 0.11 82 1013.3
20260510043020 62 103 0.0 0.0 0.00 0.47 0.11 84 1013.1
20260510041518 60 57 0.0 4.0 0.00 0.47 0.11 85 1012.9
20260510040047 59 221 0.0 0.0 0.00 0.47 0.11 86 1011.8
20260510034548 59 221 0.0 0.0 0.00 0.82 0.11 86 1011.6
20260510033054 59 221 0.0 0.0 0.00 0.82 0.11 86 1011.5
20260510031541 59 221 0.0 0.0 0.00 0.82 0.11 86 1011.3
20260510030038 59 221 0.0 0.0 0.00 0.82 0.11 85 1011.2
20260510024542 59 221 0.0 0.0 0.00 0.83 0.11 84 1011.1
20260510023008 60 221 0.0 0.0 0.00 0.83 0.11 84 1010.9
20260510021509 61 221 0.0 0.0 0.00 0.83 0.11 83 1010.6
20260510020007 62 221 0.0 0.0 0.00 0.83 0.11 82 1010.4
20260510014504 63 221 0.0 0.0 0.00 1.05 0.11 81 1010.2
20260510013001 64 221 0.0 0.0 0.00 1.05 0.11 79 1010.1
20260510011502 65 221 0.0 0.0 0.00 1.05 0.11 77 1009.9
20260510010031 67 221 0.0 0.0 0.00 1.05 0.11 76 1009.8
20260510004531 69 221 0.0 0.0 0.00 1.05 0.11 74 1009.7
20260510003027 71 221 0.0 0.0 0.00 1.05 0.11 72 1009.4
20260510001537 73 221 0.0 0.0 0.00 1.05 0.11 68 1009.3
20260510000025 75 221 0.0 0.0 0.00 1.05 0.11 59 1009.2
20260509234527 76 221 0.0 0.0 0.00 1.05 0.11 54 1009.3
20260509233025 78 215 0.0 2.0 0.00 1.05 0.11 50 1009.3
20260509231522 79 233 0.0 1.0 0.00 1.05 0.11 47 1009.1